Weather in Dar-Nadezhda

Ukraine / Kharkiv Region     49°09′06″N   35°44′52″E
temp.,
°C
wind,
m/s
gust,
m/s
humid.,
%
clouds,
%
prec.,
mm/h
press.,
hPa
HPBL,
m
22 january, fri
fri2223:00−1ssw61097100 0.0 1023387
02:000ssw41095100 0.0 1022411
05:000ssw5109799 0.0 1021357
08:00+1ssw6109799 0.0 1021356
11:00+3sw613100100 0.0 1021416
14:00+2ssw612100100 0.0 1020396
17:00+2ssw51298100 0.0 1019334
20:00+2s51299100 0.0 1019364
23 january, sat
sat2323:00+2ssw61498100 0.0 1019388
02:00+2s51299100 0.0 1018305
05:00+2s51199100 0.0 1018299
08:00+2s51295100 0.0 1018334
11:00+3s51197100 0.0 1018358
14:00+4s61196100 0.0 1017367
17:00+3s61294100 0.0 1016335
20:00+3s5139388 0.0 1016315
24 january, sun
sun2423:00+3s61393100 0.0 1016324
02:00+4s61392100 0.0 1016359
05:00+2sse61392100 0.0 1015294
08:00+3sse6149099 0.0 1016289
11:00+4sse71482100 0.0 1015431
14:00+4sse71572100 0.0 1013465
17:00+2sse61574100 0.0 1013440
20:00+2sse61479100 0.1 1013430
25 january, mon
mon2523:00+2sse71493100 1.4 1012384
02:00+3sse61496100 2.2 1012376
05:00+4sse61395100 0.0 1011412
08:00+4sse61397100 0.2 1012413
11:00+6sse61189100 0.1 1012431
14:00+6sse61386100 0.3 1010513
17:00+5se61288100 0.2 1010342
20:00+5se81978100 0.3 1008572
26 january, tue
tue2623:00+5se102070100 0.4 1006825
02:00+5sse101981100 1.4 1004794
05:00+7s91787100 1.4 1003836
08:00+5sse71590100 1.4 1003680
11:00+6s61292100 0.9 1002840
14:00+5ssw101564100 3.5 10021582
17:00+2sw9166796 0.1 10051455
20:000sw9166862 0.1 10081107